CSN7701 ZSJN-RKSS

Flight info

Callsign CSN7701
Flight time 1h 18m
Altitude 33100
Route BASOV9Z BASOV W4 IKEKA A591 AGAVO/N0437F290 Y644 REBIT REBIT2Q
Aircraft A320/M-SDE3FGHIRWY/LB1

Departure

Time 2026-05-06 08:04
Airport Jinan Yaoqiang International Airport (ZSJN)

Arrival

Time 2026-05-06 09:23
Airport Gimpo International Airport (RKSS)
Time Latitude Longitude Altitude Speed Heading
2026-05-06 07:54 36.85219 117.20890 84 ft 0 kts 271°
2026-05-06 07:55 36.85219 117.20903 84 ft 2 kts 271°
2026-05-06 07:56 36.85219 117.20925 84 ft 2 kts 271°
2026-05-06 07:56 36.85218 117.20947 84 ft 2 kts 271°
2026-05-06 07:56 36.85216 117.20968 86 ft 3 kts 300°
2026-05-06 07:56 36.85205 117.20985 86 ft 3 kts 336°
2026-05-06 07:57 36.85200 117.20988 87 ft 0 kts 340°
2026-05-06 07:58 36.85202 117.20987 87 ft 2 kts 341°
2026-05-06 07:58 36.85281 117.20982 85 ft 15 kts
2026-05-06 07:58 36.85369 117.21034 87 ft 16 kts 70°
2026-05-06 07:59 36.85453 117.21064 86 ft 13 kts
2026-05-06 07:59 36.85562 117.21070 84 ft 18 kts
2026-05-06 07:59 36.85693 117.21070 86 ft 19 kts 360°
2026-05-06 07:59 36.85746 117.21174 85 ft 17 kts 89°
2026-05-06 08:00 36.85750 117.21331 86 ft 18 kts 74°
2026-05-06 08:00 36.85866 117.21370 87 ft 19 kts
2026-05-06 08:00 36.86010 117.21371 86 ft 21 kts 359°
2026-05-06 08:00 36.86168 117.21371 86 ft 24 kts
2026-05-06 08:01 36.86339 117.21373 86 ft 26 kts 359°
2026-05-06 08:01 36.86524 117.21371 85 ft 27 kts 360°
2026-05-06 08:01 36.86716 117.21370 86 ft 27 kts
2026-05-06 08:01 36.86906 117.21371 84 ft 24 kts 360°
2026-05-06 08:02 36.87080 117.21371 86 ft 26 kts
2026-05-06 08:02 36.87261 117.21372 86 ft 23 kts
2026-05-06 08:02 36.87340 117.21448 86 ft 17 kts 91°
2026-05-06 08:02 36.87311 117.21581 87 ft 17 kts 147°
2026-05-06 08:03 36.87202 117.21595 86 ft 17 kts 180°
2026-05-06 08:03 36.87048 117.21595 88 ft 57 kts 180°
2026-05-06 08:03 36.86422 117.21596 84 ft 120 kts 180°
2026-05-06 08:03 36.85417 117.21595 88 ft 167 kts 180°
2026-05-06 08:04 36.83712 117.21621 577 ft 190 kts 180°
2026-05-06 08:04 36.82417 117.21689 1431 ft 186 kts 181°
2026-05-06 08:04 36.81516 117.21731 1634 ft 199 kts 181°
2026-05-06 08:04 36.80073 117.22037 1816 ft 230 kts 158°
2026-05-06 08:05 36.78902 117.23496 2390 ft 252 kts 117°
2026-05-06 08:05 36.78643 117.25684 3263 ft 262 kts 85°
2026-05-06 08:05 36.79064 117.27909 4202 ft 266 kts 72°
2026-05-06 08:05 36.79716 117.30087 5096 ft 271 kts 70°
2026-05-06 08:06 36.80422 117.32292 5876 ft 277 kts 70°
2026-05-06 08:06 36.81374 117.34395 6652 ft 282 kts 47°
2026-05-06 08:06 36.82880 117.35952 7467 ft 283 kts 26°
2026-05-06 08:06 36.84772 117.36799 7958 ft 295 kts
2026-05-06 08:07 36.86829 117.36870 8705 ft 298 kts 355°
2026-05-06 08:07 36.88914 117.36870 9543 ft 301 kts 355°
2026-05-06 08:07 36.91028 117.36871 10225 ft 309 kts 355°
2026-05-06 08:07 36.93260 117.36868 10457 ft 333 kts 356°
2026-05-06 08:08 36.95656 117.36860 10652 ft 355 kts 356°
2026-05-06 08:08 36.98164 117.36858 11159 ft 365 kts 356°
2026-05-06 08:08 37.00717 117.36865 11824 ft 369 kts 356°
2026-05-06 08:08 37.03299 117.36877 12514 ft 373 kts 356°
2026-05-06 08:09 37.05909 117.36890 13187 ft 377 kts 356°
2026-05-06 08:09 37.08551 117.36904 13824 ft 381 kts 356°
2026-05-06 08:09 37.11253 117.36926 14400 ft 386 kts 358°
2026-05-06 08:09 37.13944 117.37322 14958 ft 393 kts
2026-05-06 08:10 37.16657 117.37872 15534 ft 397 kts
2026-05-06 08:10 37.19393 117.38425 16109 ft 400 kts
2026-05-06 08:10 37.22154 117.38980 16696 ft 404 kts
2026-05-06 08:10 37.24939 117.39539 17291 ft 407 kts
2026-05-06 08:11 37.27745 117.40126 17902 ft 411 kts
2026-05-06 08:11 37.30298 117.41177 18398 ft 420 kts 23°
2026-05-06 08:11 37.32782 117.43151 18920 ft 428 kts 38°
2026-05-06 08:11 37.34821 117.45901 19437 ft 435 kts 54°
2026-05-06 08:12 37.36256 117.49263 19937 ft 440 kts 70°
2026-05-06 08:12 37.37017 117.53006 20410 ft 444 kts 81°
2026-05-06 08:12 37.37553 117.56800 20871 ft 449 kts 82°
2026-05-06 08:12 37.38059 117.60751 21323 ft 454 kts 82°
2026-05-06 08:13 37.38541 117.64694 21756 ft 459 kts 83°
2026-05-06 08:13 37.39027 117.68689 22180 ft 464 kts 82°
2026-05-06 08:13 37.39523 117.72711 22597 ft 469 kts 82°
2026-05-06 08:13 37.40031 117.76784 23016 ft 473 kts 82°
2026-05-06 08:14 37.40550 117.80884 23401 ft 478 kts 82°
2026-05-06 08:14 37.41078 117.85030 23737 ft 482 kts 82°
2026-05-06 08:14 37.41611 117.89203 24088 ft 485 kts 82°
2026-05-06 08:14 37.42147 117.93414 24419 ft 489 kts 82°
2026-05-06 08:15 37.42684 117.97656 24751 ft 492 kts 82°
2026-05-06 08:15 37.43220 118.01919 25076 ft 496 kts 82°
2026-05-06 08:15 37.43758 118.06219 25397 ft 499 kts 82°
2026-05-06 08:15 37.44305 118.10614 25712 ft 503 kts 81°
2026-05-06 08:16 37.44837 118.14920 26019 ft 506 kts 81°
2026-05-06 08:16 37.45383 118.19371 26346 ft 510 kts 81°
2026-05-06 08:16 37.45927 118.23791 26662 ft 513 kts 81°
2026-05-06 08:16 37.46486 118.28245 26974 ft 517 kts 81°
2026-05-06 08:17 37.47060 118.32726 27290 ft 520 kts 81°
2026-05-06 08:17 37.47641 118.37229 27600 ft 523 kts 80°
2026-05-06 08:17 37.48226 118.41762 27899 ft 526 kts 80°
2026-05-06 08:17 37.48809 118.46324 28202 ft 529 kts 80°
2026-05-06 08:18 37.49392 118.50914 28496 ft 532 kts 80°
2026-05-06 08:18 37.49974 118.55526 28796 ft 535 kts 80°
2026-05-06 08:18 37.50556 118.60170 29091 ft 538 kts 80°
2026-05-06 08:18 37.51135 118.64836 29391 ft 540 kts 80°
2026-05-06 08:19 37.51711 118.69505 29820 ft 540 kts 80°
2026-05-06 08:19 37.52285 118.74172 30190 ft 539 kts 80°
2026-05-06 08:19 37.52852 118.78838 30591 ft 538 kts 81°
2026-05-06 08:19 37.53342 118.83503 31004 ft 536 kts 83°
2026-05-06 08:20 37.53729 118.88167 31420 ft 535 kts 84°
2026-05-06 08:20 37.54042 118.92825 31837 ft 533 kts 85°
2026-05-06 08:20 37.54320 118.97474 32259 ft 532 kts 85°
2026-05-06 08:20 37.54598 119.02111 32663 ft 531 kts 85°
2026-05-06 08:21 37.54897 119.06748 32819 ft 530 kts 84°
2026-05-06 08:21 37.55221 119.11375 32855 ft 530 kts 84°
2026-05-06 08:21 37.55922 119.20690 32848 ft 530 kts 84°
2026-05-06 08:22 37.56616 119.29953 32849 ft 531 kts 84°
2026-05-06 08:22 37.57273 119.39221 32852 ft 531 kts 84°
2026-05-06 08:23 37.57915 119.48519 32863 ft 536 kts 84°
2026-05-06 08:23 37.58557 119.57877 32892 ft 535 kts 84°
2026-05-06 08:24 37.59178 119.67186 32878 ft 534 kts 84°
2026-05-06 08:24 37.59842 119.76506 32881 ft 533 kts 84°
2026-05-06 08:25 37.60566 119.85797 32875 ft 532 kts 84°
2026-05-06 08:25 37.61282 119.95085 32882 ft 532 kts 84°
2026-05-06 08:26 37.61963 120.04362 32886 ft 531 kts 84°
2026-05-06 08:26 37.62624 120.13637 32884 ft 531 kts 85°
2026-05-06 08:27 37.63293 120.22965 32888 ft 530 kts 85°
2026-05-06 08:27 37.63953 120.32216 32890 ft 529 kts 85°
2026-05-06 08:28 37.64605 120.41462 32892 ft 529 kts 85°
2026-05-06 08:28 37.65020 120.50718 32893 ft 528 kts 94°
2026-05-06 08:29 37.63695 120.59736 32896 ft 521 kts 112°
2026-05-06 08:29 37.61005 120.68171 32901 ft 518 kts 116°
2026-05-06 08:30 37.58251 120.76562 32911 ft 518 kts 116°
2026-05-06 08:30 37.55559 120.84991 32926 ft 518 kts 115°
2026-05-06 08:31 37.52925 120.93435 32933 ft 518 kts 115°
2026-05-06 08:31 37.50278 121.01857 32931 ft 517 kts 115°
2026-05-06 08:32 37.47603 121.10254 32935 ft 516 kts 116°
2026-05-06 08:32 37.44927 121.18631 32940 ft 516 kts 115°
2026-05-06 08:33 37.42593 121.27178 32949 ft 517 kts 110°
2026-05-06 08:33 37.40556 121.35862 32964 ft 517 kts 109°
2026-05-06 08:34 37.37424 121.48826 32965 ft 516 kts 111°
2026-05-06 08:35 37.35577 121.56010 32973 ft 515 kts 111°
2026-05-06 08:35 37.32985 121.66018 32977 ft 515 kts 111°
2026-05-06 08:36 37.31164 121.73137 32978 ft 515 kts 111°
2026-05-06 08:36 37.28985 121.81697 32988 ft 514 kts 111°
2026-05-06 08:37 37.26793 121.90237 32994 ft 514 kts 111°
2026-05-06 08:37 37.24588 121.98764 32997 ft 513 kts 111°
2026-05-06 08:38 37.22380 122.07273 33007 ft 513 kts 111°
2026-05-06 08:38 37.20087 122.15726 33015 ft 510 kts 116°
2026-05-06 08:39 37.16466 122.23229 33013 ft 498 kts 135°
2026-05-06 08:39 37.11501 122.29114 33014 ft 491 kts 143°
2026-05-06 08:39 37.09172 122.32279 33011 ft 499 kts 131°
2026-05-06 08:40 37.07309 122.35969 33011 ft 504 kts 120°
2026-05-06 08:40 37.04911 122.44315 33001 ft 509 kts 108°
2026-05-06 08:41 37.02919 122.52820 33007 ft 509 kts 109°
2026-05-06 08:41 37.00893 122.61300 33007 ft 509 kts 109°
2026-05-06 08:42 36.98879 122.69786 33017 ft 509 kts 108°
2026-05-06 08:42 36.96875 122.78275 33020 ft 509 kts 108°
2026-05-06 08:43 36.94866 122.86758 33025 ft 509 kts 108°
2026-05-06 08:43 36.92837 122.95241 33032 ft 509 kts 108°
2026-05-06 08:44 36.90808 123.03693 33035 ft 509 kts 108°
2026-05-06 08:44 36.88770 123.12157 33038 ft 509 kts 108°
2026-05-06 08:45 36.86717 123.20672 33043 ft 509 kts 108°
2026-05-06 08:45 36.85188 123.29284 33052 ft 510 kts 94°
2026-05-06 08:45 36.85216 123.33704 33053 ft 509 kts 83°
2026-05-06 08:46 36.85830 123.38037 33055 ft 506 kts 72°
2026-05-06 08:46 36.88669 123.45966 33056 ft 498 kts 53°
2026-05-06 08:47 36.92462 123.53193 33058 ft 498 kts 53°
2026-05-06 08:47 36.96235 123.60453 33060 ft 498 kts 53°
2026-05-06 08:48 36.99995 123.67721 33066 ft 498 kts 53°
2026-05-06 08:48 37.03764 123.74988 33070 ft 498 kts 53°
2026-05-06 08:49 37.07530 123.82257 33069 ft 498 kts 53°
2026-05-06 08:49 37.11291 123.89537 33071 ft 498 kts 53°
2026-05-06 08:50 37.14860 123.96977 33067 ft 502 kts 62°
2026-05-06 08:50 37.16800 124.05399 33056 ft 507 kts 82°
2026-05-06 08:51 37.17205 124.14237 33058 ft 508 kts 86°
2026-05-06 08:51 37.17527 124.23099 33056 ft 509 kts 86°
2026-05-06 08:52 37.17817 124.31963 33060 ft 509 kts 86°
2026-05-06 08:52 37.18019 124.40844 33064 ft 510 kts 87°
2026-05-06 08:53 37.18202 124.49785 33078 ft 510 kts 87°
2026-05-06 08:53 37.18401 124.58676 33081 ft 510 kts 86°
2026-05-06 08:54 37.18603 124.67562 33090 ft 510 kts 86°
2026-05-06 08:54 37.18795 124.76448 33099 ft 510 kts 86°
2026-05-06 08:55 37.18982 124.85334 33098 ft 510 kts 86°
2026-05-06 08:55 37.19161 124.94218 33101 ft 509 kts 86°
2026-05-06 08:56 37.19326 125.03093 33100 ft 509 kts 86°
2026-05-06 08:56 37.19486 125.11964 33100 ft 509 kts 86°
2026-05-06 08:57 37.19645 125.20835 33105 ft 509 kts 86°
2026-05-06 08:57 37.19795 125.29701 33109 ft 508 kts 86°
2026-05-06 08:58 37.19938 125.38566 33106 ft 508 kts 86°
2026-05-06 08:58 37.20018 125.47428 33104 ft 509 kts 92°
2026-05-06 08:58 37.19471 125.51816 33106 ft 511 kts 103°
2026-05-06 08:59 37.18621 125.56144 33105 ft 511 kts 103°
2026-05-06 08:59 37.16901 125.64791 33109 ft 511 kts 103°
2026-05-06 09:00 37.15167 125.73445 33112 ft 512 kts 103°
2026-05-06 09:00 37.13859 125.82230 33111 ft 508 kts 88°
2026-05-06 09:01 37.13930 125.91075 33120 ft 507 kts 86°
2026-05-06 09:01 37.14046 125.99919 33119 ft 507 kts 86°
2026-05-06 09:02 37.14146 126.08687 33079 ft 492 kts 86°
2026-05-06 09:02 37.14183 126.12898 32655 ft 476 kts 86°
2026-05-06 09:02 37.14219 126.17000 31969 ft 467 kts 86°
2026-05-06 09:02 37.14251 126.21047 31250 ft 461 kts 88°
2026-05-06 09:03 37.13807 126.24990 30566 ft 456 kts 109°
2026-05-06 09:03 37.12594 126.28627 29813 ft 450 kts 115°
2026-05-06 09:03 37.11294 126.32172 29014 ft 445 kts 116°
2026-05-06 09:03 37.09974 126.35658 28281 ft 440 kts 116°
2026-05-06 09:04 37.08661 126.39084 27598 ft 434 kts 117°
2026-05-06 09:04 37.07360 126.42469 26927 ft 429 kts 117°
2026-05-06 09:04 37.06081 126.45816 26266 ft 423 kts 117°
2026-05-06 09:04 37.04809 126.49164 25599 ft 418 kts 116°
2026-05-06 09:05 37.03891 126.52573 24956 ft 412 kts 97°
2026-05-06 09:05 37.03957 126.56106 24313 ft 403 kts 75°
2026-05-06 09:05 37.04665 126.59475 23596 ft 399 kts 72°
2026-05-06 09:05 37.05417 126.62802 22804 ft 396 kts 72°
2026-05-06 09:06 37.06172 126.66089 22010 ft 392 kts 72°
2026-05-06 09:06 37.06930 126.69394 20989 ft 396 kts 72°
2026-05-06 09:06 37.07685 126.72716 20019 ft 398 kts 73°
2026-05-06 09:06 37.08435 126.76052 19077 ft 398 kts 73°
2026-05-06 09:07 37.09179 126.79394 18142 ft 398 kts 74°
2026-05-06 09:07 37.09917 126.82729 17109 ft 397 kts 74°
2026-05-06 09:07 37.10653 126.86052 16104 ft 395 kts 74°
2026-05-06 09:07 37.11343 126.89362 15131 ft 391 kts 81°
2026-05-06 09:08 37.11379 126.92732 14185 ft 385 kts 102°
2026-05-06 09:08 37.10905 126.94850 13541 ft 379 kts 115°
2026-05-06 09:08 37.09333 126.98753 12182 ft 372 kts 121°
2026-05-06 09:08 37.08517 127.00633 11518 ft 370 kts 121°
2026-05-06 09:09 37.07268 127.03475 10547 ft 366 kts 121°
2026-05-06 09:09 37.06036 127.06240 9572 ft 362 kts 121°
2026-05-06 09:09 37.04418 127.09842 8212 ft 356 kts 121°
2026-05-06 09:09 37.03602 127.11659 7539 ft 353 kts 121°
2026-05-06 09:10 37.02607 127.14432 6578 ft 350 kts 103°
2026-05-06 09:10 37.02534 127.17329 6323 ft 326 kts 79°
2026-05-06 09:10 37.03334 127.19856 6130 ft 303 kts 54°
2026-05-06 09:10 37.04778 127.21619 5925 ft 282 kts 34°
2026-05-06 09:11 37.06381 127.22969 5718 ft 269 kts 31°
2026-05-06 09:11 37.07941 127.24227 5521 ft 265 kts 31°
2026-05-06 09:11 37.09476 127.25466 5318 ft 260 kts 31°
2026-05-06 09:11 37.10981 127.26680 5114 ft 255 kts 31°
2026-05-06 09:12 37.12505 127.27757 4913 ft 248 kts 18°
2026-05-06 09:12 37.14145 127.28218 4714 ft 237 kts 359°
2026-05-06 09:12 37.15739 127.28040 4512 ft 225 kts 341°
2026-05-06 09:12 37.17154 127.27313 4306 ft 215 kts 323°
2026-05-06 09:13 37.18289 127.26160 4112 ft 210 kts 310°
2026-05-06 09:13 37.19341 127.24856 3910 ft 211 kts 311°
2026-05-06 09:13 37.20385 127.23568 3713 ft 211 kts 311°
2026-05-06 09:13 37.21428 127.22273 3516 ft 211 kts 311°
2026-05-06 09:14 37.22482 127.20979 3325 ft 212 kts 312°
2026-05-06 09:14 37.23531 127.19687 3135 ft 211 kts 311°
2026-05-06 09:14 37.24564 127.18403 3032 ft 208 kts 311°
2026-05-06 09:14 37.25595 127.17124 3018 ft 210 kts 311°
2026-05-06 09:15 37.26632 127.15839 3012 ft 210 kts 311°
2026-05-06 09:15 37.27669 127.14542 3011 ft 211 kts 310°
2026-05-06 09:15 37.28709 127.13245 3011 ft 211 kts 311°
2026-05-06 09:15 37.29755 127.11954 3015 ft 210 kts 311°
2026-05-06 09:16 37.30798 127.10667 3015 ft 210 kts 310°
2026-05-06 09:16 37.31834 127.09382 3013 ft 209 kts 309°
2026-05-06 09:16 37.32861 127.08098 3020 ft 209 kts 309°
2026-05-06 09:16 37.33887 127.06809 3006 ft 209 kts 310°
2026-05-06 09:17 37.35005 127.05407 3021 ft 245 kts 311°
2026-05-06 09:17 37.36260 127.03848 3017 ft 258 kts 310°
2026-05-06 09:17 37.37539 127.02262 3016 ft 259 kts 310°
2026-05-06 09:17 37.38819 127.00664 3011 ft 260 kts 311°
2026-05-06 09:18 37.40104 126.99069 3015 ft 259 kts 311°
2026-05-06 09:18 37.41383 126.97474 3013 ft 259 kts 310°
2026-05-06 09:18 37.42649 126.95896 3016 ft 250 kts 310°
2026-05-06 09:18 37.43838 126.94412 2975 ft 230 kts 310°
2026-05-06 09:19 37.44928 126.93050 2784 ft 213 kts 310°
2026-05-06 09:19 37.45973 126.91744 2507 ft 210 kts 309°
2026-05-06 09:19 37.46182 126.91484 2442 ft 207 kts 309°
2026-05-06 09:19 37.47186 126.90236 2176 ft 198 kts 309°
2026-05-06 09:20 37.48113 126.89072 1955 ft 180 kts 309°
2026-05-06 09:20 37.48970 126.87997 1704 ft 169 kts 309°
2026-05-06 09:20 37.49772 126.86991 1458 ft 157 kts 309°
2026-05-06 09:20 37.50505 126.86065 1272 ft 144 kts 308°
2026-05-06 09:21 37.51202 126.85186 1065 ft 142 kts 309°
2026-05-06 09:21 37.51906 126.84309 871 ft 139 kts 309°
2026-05-06 09:21 37.52598 126.83448 695 ft 140 kts 309°
2026-05-06 09:21 37.53285 126.82587 490 ft 141 kts 310°
2026-05-06 09:22 37.53980 126.81716 310 ft 137 kts 307°
2026-05-06 09:22 37.54644 126.80879 107 ft 135 kts 310°
2026-05-06 09:22 37.55261 126.80091 48 ft 106 kts 316°
2026-05-06 09:22 37.55689 126.79558 49 ft 70 kts 315°
2026-05-06 09:23 37.55977 126.79196 48 ft 46 kts 317°
2026-05-06 09:23 37.56167 126.79024 47 ft 31 kts 336°
2026-05-06 09:23 37.56321 126.79013 45 ft 18 kts 58°
2026-05-06 09:23 37.56263 126.79136 46 ft 19 kts 136°
2026-05-06 09:24 37.56165 126.79264 42 ft 22 kts 133°
2026-05-06 09:24 37.56052 126.79404 46 ft 24 kts 137°
2026-05-06 09:24 37.55946 126.79562 43 ft 23 kts 107°
2026-05-06 09:24 37.55920 126.79771 46 ft 25 kts 98°
2026-05-06 09:25 37.55884 126.79980 45 ft 19 kts 131°
2026-05-06 09:25 37.55798 126.80086 45 ft 14 kts 133°
2026-05-06 09:25 37.55800 126.80145 45 ft 8 kts 49°
2026-05-06 09:25 37.55834 126.80189 45 ft 2 kts 48°
2026-05-06 09:40 37.55833 126.80189 45 ft 0 kts 48°
2026-05-06 09:40 37.55833 126.80188 45 ft 0 kts 48°
2026-05-06 09:59 37.55833 126.80187 45 ft 0 kts 48°
2026-05-06 10:06 37.55832 126.80187 45 ft 0 kts 48°
2026-05-06 10:16 37.55832 126.80186 45 ft 0 kts 48°
2026-05-06 10:34 37.55831 126.80186 45 ft 0 kts 48°
2026-05-06 10:39 37.55831 126.80185 45 ft 0 kts 48°
2026-05-06 11:15 37.55831 126.80184 46 ft 0 kts 48°
2026-05-06 11:23 37.55830 126.80184 45 ft 0 kts 48°
2026-05-06 11:36 37.55820 126.80167 45 ft 4 kts 59°
2026-05-06 11:37 37.55809 126.80137 43 ft 3 kts 70°
2026-05-06 11:37 37.55806 126.80127 42 ft 0 kts 70°
2026-05-06 11:39 37.55808 126.80134 45 ft 2 kts 79°
2026-05-06 11:39 37.55771 126.80163 45 ft 13 kts 186°
2026-05-06 11:40 37.55690 126.80222 45 ft 15 kts 135°
2026-05-06 11:40 37.55609 126.80316 44 ft 17 kts 150°
2026-05-06 11:40 37.55506 126.80401 45 ft 19 kts 136°
2026-05-06 11:40 37.55407 126.80522 44 ft 21 kts 136°
2026-05-06 11:41 37.55299 126.80655 43 ft 23 kts 136°
2026-05-06 11:41 37.55180 126.80800 43 ft 25 kts 135°
2026-05-06 11:41 37.55097 126.80906 45 ft 25 kts 135°
2026-05-06 11:41 37.55010 126.80975 45 ft 14 kts 195°
2026-05-06 11:42 37.54937 126.80890 44 ft 15 kts 227°
2026-05-06 11:42 37.54857 126.80784 47 ft 19 kts 224°
2026-05-06 11:42 37.54813 126.80662 47 ft 15 kts 297°
2026-05-06 11:42 37.54886 126.80565 45 ft 16 kts 315°
2026-05-06 11:43 37.55093 126.80306 48 ft 75 kts 315°
2026-05-06 11:43 37.55608 126.79664 49 ft 130 kts 315°
2026-05-06 11:43 37.56357 126.78732 68 ft 169 kts 315°
2026-05-06 11:44 37.58090 126.76681 1186 ft 172 kts 314°
2026-05-06 11:44 37.59075 126.75659 1428 ft 197 kts 325°
2026-05-06 11:44 37.60492 126.75170 1627 ft 229 kts 352°
2026-05-06 11:44 37.62120 126.74802 1999 ft 248 kts 335°
2026-05-06 11:45 37.63630 126.73660 2435 ft 261 kts 312°
2026-05-06 11:45 37.64671 126.71760 3005 ft 269 kts 287°
2026-05-06 11:45 37.64982 126.69441 3840 ft 263 kts 269°
2026-05-06 11:45 37.65276 126.67193 4949 ft 264 kts 291°
2026-05-06 11:46 37.66505 126.65407 5828 ft 276 kts 326°
2026-05-06 11:46 37.68367 126.64756 6654 ft 287 kts 359°
2026-05-06 11:46 37.70286 126.65483 7435 ft 296 kts 32°
2026-05-06 11:46 37.71667 126.67413 8206 ft 302 kts 64°
2026-05-06 11:47 37.72360 126.69932 9002 ft 306 kts 74°
2026-05-06 11:47 37.72831 126.72564 9765 ft 310 kts 82°
2026-05-06 11:47 37.72743 126.75290 10404 ft 316 kts 105°
2026-05-06 11:47 37.71920 126.77953 10586 ft 337 kts 117°
2026-05-06 11:48 37.70847 126.80742 10716 ft 360 kts 118°
2026-05-06 11:48 37.69725 126.83647 11089 ft 373 kts 117°
2026-05-06 11:48 37.68584 126.86617 11673 ft 378 kts 117°
2026-05-06 11:48 37.67436 126.89624 12297 ft 382 kts 117°
2026-05-06 11:49 37.66275 126.92666 12931 ft 386 kts 118°
2026-05-06 11:49 37.65100 126.95728 13548 ft 390 kts 118°
2026-05-06 11:49 37.63889 126.98869 14119 ft 395 kts 118°
2026-05-06 11:49 37.62680 127.01999 14651 ft 398 kts 118°
2026-05-06 11:50 37.61465 127.05148 15221 ft 401 kts 118°
2026-05-06 11:50 37.60241 127.08320 15756 ft 404 kts 118°
2026-05-06 11:50 37.59005 127.11518 16292 ft 407 kts 118°
2026-05-06 11:50 37.57760 127.14737 16847 ft 410 kts 118°
2026-05-06 11:51 37.56502 127.17980 17403 ft 414 kts 118°
2026-05-06 11:51 37.55215 127.21293 17967 ft 418 kts 118°
2026-05-06 11:51 37.53930 127.24598 18496 ft 421 kts 118°
2026-05-06 11:51 37.52639 127.27926 18983 ft 425 kts 118°
2026-05-06 11:52 37.51337 127.31286 19493 ft 429 kts 117°
2026-05-06 11:52 37.50259 127.34815 19994 ft 435 kts 107°
2026-05-06 11:52 37.49671 127.38626 20496 ft 441 kts 96°
2026-05-06 11:52 37.49621 127.42499 20969 ft 445 kts 85°
2026-05-06 11:53 37.50099 127.46355 21429 ft 448 kts 77°
2026-05-06 11:53 37.50727 127.50208 21865 ft 451 kts 77°
2026-05-06 11:53 37.51354 127.54091 22305 ft 454 kts 78°
2026-05-06 11:53 37.51978 127.57994 22743 ft 457 kts 78°
2026-05-06 11:54 37.52601 127.61934 23148 ft 460 kts 78°
2026-05-06 11:54 37.53228 127.65911 23556 ft 463 kts 78°
2026-05-06 11:54 37.53865 127.69946 23898 ft 466 kts 78°
2026-05-06 11:54 37.54500 127.73958 24233 ft 468 kts 78°
2026-05-06 11:55 37.55141 127.77995 24571 ft 471 kts 77°
2026-05-06 11:55 37.55786 127.82048 24884 ft 474 kts 77°
2026-05-06 11:55 37.56434 127.86130 25203 ft 476 kts 77°
2026-05-06 11:55 37.57083 127.90235 25522 ft 479 kts 78°
2026-05-06 11:56 37.57729 127.94363 25838 ft 481 kts 78°
2026-05-06 11:56 37.58375 127.98515 26134 ft 484 kts 78°
2026-05-06 11:56 37.59024 128.02691 26440 ft 487 kts 78°
2026-05-06 11:56 37.59676 128.06893 26742 ft 489 kts 78°
2026-05-06 11:57 37.60338 128.11172 27059 ft 492 kts 78°
2026-05-06 11:57 37.60992 128.15416 27352 ft 495 kts 78°
2026-05-06 11:57 37.61653 128.19692 27649 ft 497 kts 78°
2026-05-06 11:57 37.62317 128.23979 27969 ft 500 kts 78°
2026-05-06 11:58 37.62983 128.28295 28280 ft 502 kts 78°
2026-05-06 11:58 37.63645 128.32615 28683 ft 502 kts 77°
2026-05-06 11:58 37.64302 128.36939 29085 ft 502 kts 78°
2026-05-06 11:58 37.64960 128.41267 29468 ft 503 kts 78°
2026-05-06 11:59 37.65621 128.45598 29879 ft 503 kts 78°
2026-05-06 11:59 37.66289 128.49990 30229 ft 503 kts 77°
2026-05-06 11:59 37.66946 128.54336 30560 ft 504 kts 77°
2026-05-06 11:59 37.67603 128.58682 30882 ft 504 kts 77°
2026-05-06 12:00 37.68259 128.63029 31210 ft 505 kts 77°
2026-05-06 12:00 37.68818 128.67407 31541 ft 507 kts 83°
2026-05-06 12:00 37.68853 128.71917 31873 ft 508 kts 94°
2026-05-06 12:00 37.68326 128.76272 32216 ft 509 kts 104°
2026-05-06 12:01 37.67247 128.80578 32513 ft 508 kts 114°
2026-05-06 12:01 37.65682 128.84558 32848 ft 506 kts 123°
2026-05-06 12:01 37.63867 128.88367 32965 ft 509 kts 123°
2026-05-06 12:01 37.62025 128.92214 32977 ft 514 kts 123°
2026-05-06 12:02 37.58312 128.99939 32975 ft 516 kts 123°
2026-05-06 12:02 37.55199 129.06412 32976 ft 515 kts 123°
2026-05-06 12:03 37.51459 129.14185 32978 ft 515 kts 123°
2026-05-06 12:03 37.47741 129.21877 32980 ft 514 kts 123°
2026-05-06 12:04 37.44016 129.29557 32980 ft 514 kts 123°
2026-05-06 12:04 37.40274 129.37280 32986 ft 514 kts 123°
2026-05-06 12:05 37.36549 129.44948 32993 ft 513 kts 123°
2026-05-06 12:05 37.32827 129.52592 32998 ft 513 kts 123°
2026-05-06 12:06 37.29069 129.60276 33000 ft 512 kts 123°
2026-05-06 12:06 37.25340 129.67898 33007 ft 512 kts 122°
2026-05-06 12:07 37.21611 129.75508 33008 ft 511 kts 122°
2026-05-06 12:07 37.17876 129.83098 33010 ft 511 kts 122°
2026-05-06 12:08 37.14141 129.90667 33015 ft 511 kts 122°
2026-05-06 12:08 37.10378 129.98277 33014 ft 510 kts 122°
2026-05-06 12:09 37.06637 130.05827 33020 ft 510 kts 122°
2026-05-06 12:09 37.02903 130.13358 33026 ft 509 kts 122°
2026-05-06 12:10 36.99165 130.20872 33021 ft 508 kts 122°
2026-05-06 12:10 36.95431 130.28371 33025 ft 508 kts 122°
2026-05-06 12:11 36.91682 130.35850 33025 ft 507 kts 122°
2026-05-06 12:11 36.87935 130.43312 33029 ft 507 kts 122°
2026-05-06 12:12 36.84174 130.50822 33036 ft 506 kts 122°
2026-05-06 12:12 36.80435 130.58262 33029 ft 506 kts 122°
2026-05-06 12:13 36.76662 130.65732 33031 ft 505 kts 122°
2026-05-06 12:13 36.72917 130.73144 33046 ft 505 kts 122°
2026-05-06 12:14 36.69169 130.80537 33044 ft 504 kts 122°
2026-05-06 12:14 36.65419 130.87925 33045 ft 504 kts 122°
2026-05-06 12:15 36.61646 130.95345 33052 ft 504 kts 122°
2026-05-06 12:15 36.57899 131.02701 33049 ft 503 kts 122°
2026-05-06 12:16 36.54156 131.10048 33051 ft 503 kts 122°
2026-05-06 12:16 36.50383 131.17428 33055 ft 502 kts 122°
2026-05-06 12:17 36.46627 131.24739 33057 ft 502 kts 122°
2026-05-06 12:17 36.42869 131.32032 33064 ft 501 kts 122°
2026-05-06 12:18 36.39115 131.39317 33066 ft 501 kts 121°
2026-05-06 12:18 36.35384 131.46619 33066 ft 500 kts 121°
2026-05-06 12:19 36.31720 131.54014 33065 ft 500 kts 120°
2026-05-06 12:19 36.28122 131.61365 33068 ft 499 kts 120°
2026-05-06 12:20 36.24497 131.68699 33073 ft 499 kts 120°
2026-05-06 12:20 36.20855 131.76009 33079 ft 498 kts 120°
2026-05-06 12:21 36.17211 131.83296 33077 ft 498 kts 120°
2026-05-06 12:21 36.13563 131.90560 33081 ft 497 kts 120°
2026-05-06 12:22 36.09891 131.97869 33081 ft 496 kts 120°
2026-05-06 12:22 36.06252 132.05107 33084 ft 496 kts 121°
2026-05-06 12:23 36.02604 132.12336 33087 ft 496 kts 121°
2026-05-06 12:23 35.98957 132.19559 33091 ft 495 kts 121°
2026-05-06 12:24 35.95302 132.26770 33095 ft 495 kts 121°
2026-05-06 12:24 35.91650 132.33962 33098 ft 495 kts 121°
2026-05-06 12:25 35.87967 132.41197 33100 ft 494 kts 121°
2026-05-06 12:25 35.84932 132.47163 33102 ft 494 kts 121°
2026-05-06 12:26 35.81278 132.54325 33101 ft 493 kts 121°
2026-05-06 12:26 35.77585 132.61539 33103 ft 493 kts 121°
2026-05-06 12:27 35.73931 132.68671 33106 ft 492 kts 121°
2026-05-06 12:27 35.70295 132.75812 33105 ft 492 kts 121°
2026-05-06 12:28 35.66677 132.82939 33107 ft 491 kts 121°
2026-05-06 12:28 35.63027 132.90090 33102 ft 490 kts 121°
2026-05-06 12:29 35.59419 132.97128 33102 ft 489 kts 121°
2026-05-06 12:29 35.55764 133.04238 33105 ft 489 kts 121°
2026-05-06 12:30 35.52341 133.11435 33102 ft 487 kts 113°
2026-05-06 12:30 35.49534 133.18998 33103 ft 487 kts 113°
2026-05-06 12:31 35.46716 133.26545 33104 ft 486 kts 114°
2026-05-06 12:31 35.43886 133.34061 33107 ft 485 kts 114°
2026-05-06 12:32 35.41054 133.41574 33105 ft 485 kts 114°
2026-05-06 12:32 35.38224 133.49067 33111 ft 485 kts 114°
2026-05-06 12:33 35.35392 133.56558 33111 ft 484 kts 114°
2026-05-06 12:33 35.32553 133.64046 33116 ft 484 kts 115°
2026-05-06 12:34 35.29714 133.71528 33107 ft 485 kts 115°
2026-05-06 12:34 35.26862 133.79024 33110 ft 486 kts 115°